• In Österreich
  • Länderverzeichnis
  • Für 7 Tage
  • Wassertemperatur
  • Satellitenkarten
  • Wetterkarte
  • News
  • Widgets
  • user-avatar
    Anmelden

    Stündliche Wetter La-Plata

    Heute, 16 Juli, Montag

    Zeit Temperatur Niederschläge Wind Luftdruck Luftfeuchtigkeit
    00:00 +8°C° 0 mm 5 m/S 766 mmHg 82%
    01:00 +7°C° 0 mm 4 m/S 766 mmHg 83%
    02:00 +7°C° 0 mm 4 m/S 766 mmHg 84%
    03:00 +7°C° 0 mm 5 m/S 767 mmHg 84%
    04:00 +7°C° 0 mm 5 m/S 767 mmHg 84%
    05:00 +7°C° 0 mm 5 m/S 767 mmHg 84%
    06:00 +7°C° 0 mm 5 m/S 767 mmHg 82%
    07:00 +7°C° 0 mm 5 m/S 768 mmHg 81%
    08:00 +7°C° 0 mm 5 m/S 768 mmHg 80%
    09:00 +8°C° 0 mm 5 m/S 768 mmHg 74%
    10:00 +10°C° 0 mm 6 m/S 768 mmHg 69%
    11:00 +11°C° 0 mm 6 m/S 768 mmHg 64%
    12:00 +11°C° 0 mm 6 m/S 768 mmHg 64%
    13:00 +11°C° 0 mm 6 m/S 768 mmHg 64%
    14:00 +11°C° 0 mm 7 m/S 768 mmHg 63%
    15:00 +10°C° 0 mm 6 m/S 768 mmHg 67%
    16:00 +10°C° 0 mm 6 m/S 768 mmHg 70%
    17:00 +9°C° 0 mm 6 m/S 768 mmHg 74%
    18:00 +8°C° 0 mm 6 m/S 768 mmHg 75%
    19:00 +8°C° 0 mm 6 m/S 768 mmHg 77%
    20:00 +6°C° 0 mm 7 m/S 769 mmHg 78%
    21:00 +7°C° 0 mm 6 m/S 769 mmHg 79%
    22:00 +7°C° 0 mm 6 m/S 769 mmHg 80%
    23:00 +7°C° 0 mm 6 m/S 769 mmHg 81%

    Morgen, 17 Juli, Dienstag

    Zeit Temperatur Niederschläge Wind Luftdruck Luftfeuchtigkeit
    00:00 +7°C° 0 mm 6 m/S 769 mmHg 81%
    01:00 +7°C° 0 mm 6 m/S 768 mmHg 81%
    02:00 +7°C° 0 mm 6 m/S 768 mmHg 82%
    03:00 +6°C° 0 mm 7 m/S 768 mmHg 83%
    04:00 +6°C° 0 mm 7 m/S 767 mmHg 84%
    05:00 +6°C° 0 mm 7 m/S 767 mmHg 85%
    06:00 +8°C° 0 mm 7 m/S 767 mmHg 84%
    07:00 +8°C° 0 mm 7 m/S 767 mmHg 83%
    08:00 +9°C° 0 mm 8 m/S 767 mmHg 81%
    09:00 +10°C° 0 mm 8 m/S 767 mmHg 79%
    10:00 +11°C° 0 mm 8 m/S 766 mmHg 77%
    11:00 +11°C° 0 mm 8 m/S 766 mmHg 74%
    12:00 +12°C° 0,1 mm 8 m/S 765 mmHg 75%
    13:00 +12°C° 0,1 mm 8 m/S 764 mmHg 75%
    14:00 +12°C° 0,1 mm 8 m/S 763 mmHg 76%
    15:00 +12°C° 0,3 mm 8 m/S 763 mmHg 79%
    16:00 +12°C° 0,3 mm 7 m/S 762 mmHg 81%
    17:00 +12°C° 0,3 mm 7 m/S 762 mmHg 84%
    18:00 +12°C° 0,6 mm 7 m/S 762 mmHg 86%
    19:00 +12°C° 0,6 mm 7 m/S 762 mmHg 88%
    20:00 +12°C° 0,6 mm 7 m/S 762 mmHg 90%
    21:00 +12°C° 0,6 mm 7 m/S 761 mmHg 90%
    22:00 +13°C° 0,6 mm 6 m/S 761 mmHg 91%
    23:00 +13°C° 0,6 mm 6 m/S 761 mmHg 92%

    übermorgen, 18 Juli, Mittwoch

    Zeit Temperatur Niederschläge Wind Luftdruck Luftfeuchtigkeit
    00:00 +13°C° 0,1 mm 6 m/S 760 mmHg 93%
    01:00 +13°C° 0,1 mm 5 m/S 760 mmHg 93%
    02:00 +14°C° 0,1 mm 5 m/S 759 mmHg 94%
    03:00 +14°C° 0 mm 4 m/S 759 mmHg 95%
    04:00 +13°C° 0 mm 3 m/S 759 mmHg 96%
    05:00 +13°C° 0 mm 3 m/S 758 mmHg 96%
    06:00 +14°C° 0 mm 3 m/S 758 mmHg 96%
    07:00 +15°C° 0 mm 2 m/S 758 mmHg 97%
    08:00 +15°C° 0 mm 2 m/S 759 mmHg 97%
    09:00 +15°C° 0 mm 2 m/S 758 mmHg 94%
    10:00 +16°C° 0 mm 2 m/S 758 mmHg 92%
    11:00 +17°C° 0 mm 2 m/S 758 mmHg 89%
    12:00 +17°C° 0,1 mm 2 m/S 758 mmHg 88%
    13:00 +18°C° 0,1 mm 2 m/S 757 mmHg 87%
    14:00 +18°C° 0,1 mm 2 m/S 757 mmHg 86%
    15:00 +17°C° 0,3 mm 2 m/S 757 mmHg 89%
    16:00 +17°C° 0,3 mm 2 m/S 757 mmHg 92%
    17:00 +16°C° 0,3 mm 3 m/S 757 mmHg 94%
    18:00 +16°C° 0,4 mm 3 m/S 757 mmHg 94%
    19:00 +14°C° 0,4 mm 3 m/S 757 mmHg 95%
    20:00 +14°C° 0,4 mm 4 m/S 758 mmHg 95%
    21:00 +14°C° 0,1 mm 3 m/S 758 mmHg 95%
    22:00 +14°C° 0,1 mm 3 m/S 758 mmHg 95%
    23:00 +14°C° 0,1 mm 3 m/S 758 mmHg 95%

    19 Juli, Donnerstag

    Zeit Temperatur Niederschläge Wind Luftdruck Luftfeuchtigkeit
    00:00 +13°C° 0,2 mm 4 m/S 758 mmHg 95%
    01:00 +13°C° 0,2 mm 4 m/S 758 mmHg 94%
    02:00 +13°C° 0,2 mm 5 m/S 757 mmHg 94%
    03:00 +13°C° 2,4 mm 5 m/S 757 mmHg 94%
    04:00 +13°C° 2,4 mm 4 m/S 757 mmHg 94%
    05:00 +13°C° 2,4 mm 4 m/S 757 mmHg 95%
    06:00 +13°C° 2 mm 5 m/S 757 mmHg 94%
    07:00 +12°C° 2 mm 5 m/S 758 mmHg 93%
    08:00 +12°C° 2 mm 5 m/S 758 mmHg 93%
    09:00 +13°C° 0,6 mm 5 m/S 758 mmHg 92%
    10:00 +13°C° 0,6 mm 5 m/S 758 mmHg 91%
    11:00 +13°C° 0,6 mm 6 m/S 757 mmHg 90%
    12:00 +11°C° 2,6 mm 6 m/S 757 mmHg 90%
    13:00 +11°C° 2,6 mm 7 m/S 757 mmHg 90%
    14:00 +11°C° 2,6 mm 7 m/S 756 mmHg 90%
    15:00 +11°C° 1,2 mm 7 m/S 757 mmHg 90%
    16:00 +10°C° 1,2 mm 7 m/S 757 mmHg 90%
    17:00 +10°C° 1,2 mm 7 m/S 757 mmHg 90%
    18:00 +10°C° 0,8 mm 7 m/S 758 mmHg 90%
    19:00 +10°C° 0,8 mm 6 m/S 759 mmHg 90%
    20:00 +9°C° 0,8 mm 6 m/S 760 mmHg 90%
    21:00 +9°C° 0,6 mm 6 m/S 760 mmHg 90%
    22:00 +9°C° 0,6 mm 6 m/S 760 mmHg 89%
    23:00 +9°C° 0,6 mm 6 m/S 760 mmHg 89%

    20 Juli, Freitag

    Zeit Temperatur Niederschläge Wind Luftdruck Luftfeuchtigkeit
    00:00 +8°C° 0,1 mm 6 m/S 760 mmHg 87%
    01:00 +8°C° 0,1 mm 7 m/S 759 mmHg 86%
    02:00 +8°C° 0,1 mm 7 m/S 759 mmHg 85%
    03:00 +6°C° 0 mm 7 m/S 759 mmHg 85%
    04:00 +6°C° 0 mm 7 m/S 759 mmHg 85%
    05:00 +5°C° 0 mm 7 m/S 759 mmHg 85%
    06:00 +5°C° 0 mm 7 m/S 760 mmHg 84%
    07:00 +5°C° 0 mm 7 m/S 760 mmHg 83%
    08:00 +5°C° 0 mm 6 m/S 761 mmHg 82%
    09:00 +6°C° 0 mm 7 m/S 761 mmHg 78%
    10:00 +6°C° 0 mm 7 m/S 761 mmHg 75%
    11:00 +6°C° 0 mm 7 m/S 761 mmHg 71%
    12:00 +7°C° 0 mm 8 m/S 761 mmHg 66%
    13:00 +7°C° 0 mm 8 m/S 760 mmHg 61%
    14:00 +7°C° 0 mm 9 m/S 760 mmHg 55%
    15:00 +6°C° 0 mm 8 m/S 760 mmHg 57%
    16:00 +5°C° 0 mm 8 m/S 760 mmHg 59%
    17:00 +4°C° 0 mm 8 m/S 760 mmHg 61%
    18:00 +4°C° 0 mm 8 m/S 760 mmHg 59%
    19:00 +4°C° 0 mm 8 m/S 761 mmHg 58%
    20:00 +2°C° 0 mm 8 m/S 761 mmHg 57%
    21:00 +2°C° 0 mm 8 m/S 761 mmHg 56%
    22:00 +3°C° 0 mm 7 m/S 761 mmHg 56%
    23:00 +3°C° 0 mm 7 m/S 761 mmHg 56%

    21 Juli, Samstag

    Zeit Temperatur Niederschläge Wind Luftdruck Luftfeuchtigkeit
    00:00 +2°C° 0 mm 7 m/S 761 mmHg 56%
    01:00 +2°C° 0 mm 7 m/S 761 mmHg 57%
    02:00 +2°C° 0 mm 7 m/S 761 mmHg 57%
    03:00 +2°C° 0 mm 7 m/S 761 mmHg 59%
    04:00 +2°C° 0 mm 7 m/S 761 mmHg 62%
    05:00 +2°C° 0 mm 7 m/S 761 mmHg 64%
    06:00 +2°C° 0 mm 7 m/S 761 mmHg 65%
    07:00 +2°C° 0 mm 7 m/S 761 mmHg 66%
    08:00 +2°C° 0 mm 7 m/S 762 mmHg 67%
    09:00 +4°C° 0 mm 7 m/S 762 mmHg 64%
    10:00 +6°C° 0 mm 7 m/S 762 mmHg 60%
    11:00 +8°C° 0 mm 7 m/S 762 mmHg 57%
    12:00 +9°C° 0 mm 7 m/S 761 mmHg 55%
    13:00 +10°C° 0 mm 7 m/S 761 mmHg 53%
    14:00 +11°C° 0 mm 7 m/S 761 mmHg 52%
    15:00 +10°C° 0 mm 6 m/S 761 mmHg 56%
    16:00 +9°C° 0 mm 5 m/S 761 mmHg 60%
    17:00 +9°C° 0 mm 5 m/S 761 mmHg 64%
    18:00 +8°C° 0 mm 4 m/S 761 mmHg 66%
    19:00 +7°C° 0 mm 4 m/S 761 mmHg 68%
    20:00 +7°C° 0 mm 4 m/S 762 mmHg 70%
    21:00 +7°C° 0 mm 4 m/S 762 mmHg 71%
    22:00 +7°C° 0 mm 4 m/S 762 mmHg 72%
    23:00 +7°C° 0 mm 4 m/S 763 mmHg 73%
    Mehr zeigen